This is the latest recevied weather packets stored in our database for station/object KO4DYK. If no packets are shown the sender has not sent any weather packets the latest 10 day(s).
| Time | Temp. | Humidity | Pressure | Rain* | Wind** | Luminosity | Snow |
|---|---|---|---|---|---|---|---|
| 1788486507 | 27.78° C | 84% | 1015.9 hPa | 0 mm | - | 0 W/m² | - |
| 1788486203 | 27.78° C | 83% | 1015.9 hPa | 0 mm | - | 0 W/m² | - |
| 1788485899 | 28.33° C | 84% | 1015.8 hPa | 0 mm | - | 0 W/m² | - |
| 1788485595 | 28.33° C | 83% | 1015.8 hPa | 0 mm | - | 0 W/m² | - |
| 1788485290 | 28.33° C | 82% | 1015.7 hPa | 0 mm | - | 0 W/m² | - |
| 1788484985 | 28.89° C | 82% | 1015.5 hPa | 0 mm | - | 0 W/m² | - |
| 1788484684 | 29.44° C | 82% | 1015.7 hPa | 0 mm | - | 0 W/m² | - |
| 1788484380 | 29.44° C | 80% | 1015.7 hPa | 0 mm | - | 0 W/m² | - |
| 1788484080 | 29.44° C | 80% | 1015.5 hPa | 0 mm | - | 0 W/m² | - |
| 1788483777 | 29.44° C | 80% | 1015.6 hPa | 0 mm | - | 0 W/m² | - |
| 1788483477 | 29.44° C | 81% | 1015.4 hPa | 0 mm | - | 0 W/m² | - |
| 1788483173 | 30° C | 81% | 1015.4 hPa | 0 mm | - | 0 W/m² | - |
| 1788482867 | 30° C | 79% | 1015.3 hPa | 0 mm | - | 0 W/m² | - |
| 1788482563 | 30° C | 80% | 1015.3 hPa | 0 mm | - | 0 W/m² | - |
| 1788482258 | 30° C | 80% | 1015.2 hPa | 0 mm | - | 0 W/m² | - |
| 1788481954 | 30.56° C | 80% | 1015.1 hPa | 0 mm | - | 0 W/m² | - |
| 1788481649 | 30.56° C | 80% | 1015.2 hPa | 0 mm | - | 0 W/m² | - |
| 1788481346 | 31.67° C | 78% | 1015.2 hPa | 0 mm | - | 0 W/m² | - |
| 1788481040 | 32.22° C | 76% | 1015 hPa | 0 mm | - | 3 W/m² | - |
| 1788480739 | 32.22° C | 74% | 1015.1 hPa | 0 mm | - | 5 W/m² | - |
| 1788480435 | 32.22° C | 72% | 1015 hPa | 0 mm | - | 9 W/m² | - |
| 1788480130 | 32.78° C | 72% | 1015.3 hPa | 0 mm | - | 13 W/m² | - |
| 1788479829 | 33.33° C | 70% | 1015 hPa | 0 mm | - | 17 W/m² | - |
| 1788479526 | 33.89° C | 70% | 1014.8 hPa | 0 mm | - | 23 W/m² | - |
| 1788479219 | 33.89° C | 69% | 1015 hPa | 0 mm | - | 24 W/m² | - |
* Rain latest hour (hover to see other rain measurements)
** Current wind speed in m/s (hover to see current wind gust speed)